STARLINK-11175, 60191

Orbit data source: Space-Track

STARLINK-11175, 60191 is a payload satellite owned by SpaceX/Seattle (US) in LEO that was launched on Wed, 03 Jul 2024 UTC via an FALCON 9 launch vehicle from the Air Force Eastern Test Range (AFETR). Payload-class satellites include a variety of spacecraft equipped with specific instruments for various scientific and technological missions. These include communications satellites like Starlink; space stations such as the ISS; scientific satellites like the Hubble; Earth observation satellites from companies like Planet Labs, Umbra, and HawkEye 360; GPS; miniature CubeSats for education and research; and military/defense satellites.

Loading next visibility...
Identifier
60191, 2024-124J
Orbit
LEO
Last TLE update
16 hours ago
Origin
Manufacturer
SpaceX/Seattle
Mission
Operational Commercial Communications
Bus & Motor
STARLINK V2M, Unknown motor
Mass
730 kg wet, ~700 kg dry
Launch date (UTC)
2024-07-03 (1 year ago)
Launch vehicle
FALCON 9
Launch site
Air Force Eastern Test Range (AFETR)
Object type
Payload
Rocket body
Debris
Shape & HBR
Box + 2 Pan, 29 m
Radar Cross Section
36.964 m², Large (>1 m²)

Expand to show TLE details & history

TLE from 16 hours ago
0 STARLINK-11175
1 60191U 24124J   25189.65980181 -.00001517  00000-0 -76667-5 0  9996
2 60191  53.1590 284.4370 0001223  71.7298 288.3852 15.69705558 58204
Epoch: 2025-07-08T15:50Z
TLE epoch observation values (Epoch: 2025-07-08T15:50:06.876Z)
Latitude
-0.00009°
Longitude
120.05668°
Altitude
360.395 km
Speed
7.694 km/s
True Right ascension
18h 57m 44s
True Declination
0° 00' 00"
Sunlit
Object was in full shadow at epoch
Visualization orbit readout
Latitude
-51.64721°
Longitude
7.00967°
Altitude
378.446 km
Speed
7.682 km/s
Apparent Right ascension
09h 46m 27s
Apparent Declination
-48° 06' 04"
Sunlit
Object is in daylight
Visualization observer readout
Local Sidereal Time
20:22:13
Azimuth
234.529° WSW
Elevation
-72.863°
Doppler factor
1
Orbital elements
Apogee altitude
360.824 km
Perigee altitude
359.176 km
Semi-major axis
6,738.137 km
Eccentricity
0.00012
Inclination
53.159°
RAAN
284.437°
Arg. of periapsis
71.7298°
True anomaly
Unknown
Mean anomaly
288.3852°
Eccentric anomaly
Unknown
Mean motion
3.92404 °/min
Orbital period
91.74 mins
BSTAR
-0.0000076667
Loading maneuver chart data...
Loading SW <> Apogee altitude chart data...
Loading historical data...
Loading historical data...
Loading historical data...
Loading historical data...
Loading historical data...
Loading historical data...
Loading historical data...

STARLINK-11175 Visibility forecast

Observer location: undefined°, undefined°

Span
Click to sort rows by Start time (UTC) header in descending order
Start Az.
Max El. time (UTC)
Max El. Az.
Max El.
End time (UTC)
End Az.
4 mins2025-07-09 08:49:35.842Z210.286° SW2025-07-09 08:51:35.842Z130.761° SE39.145°2025-07-09 08:53:35.842Z62.245° ENE
4 mins2025-07-09 15:14:35.842Z337.966° N2025-07-09 15:16:35.842Z54.365° ENE28.86°2025-07-09 15:18:35.842Z100.342° ESE
|